SCP
0 0 0 0 0 0 0 0 -0 0 0 0 0 0 0 0 0 0 0 0 0 0
0 0 0 0 0 0 0 0 -0 -0 -0 0 0 0 0 -0 0 0 0 0 0 0
0 0 0 0 0 0 0 0 -0 -0 -0 -0 0 0 0 -0 0 0 0 0 0 0
0 0 0 0 0 0 -0 -0 -0 -0 -0 -0 0 0 0 -0 0 -0 0 0 0 0
0 0 0 0 0 0 -0 -0 -0 -0 -0 0 0 0 -0 -0 -0 -0 0 0 0 0
0 0 0 0 0 0 -0 -0 -0 -0 -0 -0 0 -0 -0 0 -0 -0 0 0 -0 0
0 0 0 0 0 -0 -0 -0 -0 -0 -0 0 0 -0 -0 -0 -0 -0 0 0 0 0
0 0 0 0 0 0 -0 -0 -0 -0 0 -0 0 -0 -0 -0 -0 0 0 0 0 0
0 0 0 0 0 0 0 0 0 0 -0 0 0 -0 -0 -0 -0 0 0 0 0 0
0 0 0 0 0 0 0 0 0 0 0 -0 -0 -0 0 0 -0 -0 -0 0 0 0
0 0 0 0 0 0 0 0 0 0 0 -0 -0 -0 0 0 0 0 -0 -0 -0 0
0 0 0 0 0 0 0 0 0 0 0 0 0 -0 -0 -0 0 0 0 0 0 0
0 0 0 0 0 0 0 0 0 0 0 0 0 0 0 0 0 0 0 0 0 0
0 0 0 0 0 0 0 0 0 0 0 0 0 0 0 0 0 0 0 0 0 0
Wind_Speed_500mb
10 9 9 5 7 4 4 1 4 7 13 12 14 20 19 14 16 21 30 36 38 59
13 10 8 6 10 7 7 5 2 3 10 11 13 14 15 16 23 27 29 33 34 45
16 12 10 7 6 9 6 7 5 2 3 4 9 9 13 16 18 25 19 34 38 50
18 17 13 9 7 8 9 7 8 5 1 4 3 4 8 15 18 24 34 30 47 52
21 20 18 14 12 11 12 13 11 8 6 8 6 8 16 25 27 31 29 32 38 34
24 23 20 16 14 14 14 15 14 11 10 10 9 15 15 29 29 29 20 25 36 33
26 25 23 19 17 13 14 16 18 15 12 15 14 14 17 24 33 26 20 28 35 37
28 28 26 22 16 13 14 18 21 20 20 19 15 19 23 30 31 34 39 45 46 41
30 29 26 22 17 15 17 17 22 23 28 20 20 26 26 33 37 43 44 49 37 38
30 30 26 22 18 20 19 21 26 31 24 23 27 31 29 31 34 40 46 41 36 31
31 31 25 20 19 21 23 29 32 27 23 28 26 34 35 35 36 33 36 34 35 28
34 33 29 24 26 26 26 31 28 26 23 29 35 35 35 41 38 32 32 35 32 25
34 35 32 28 34 32 30 30 28 28 26 29 36 37 41 42 43 38 34 35 35 28
37 37 34 35 40 38 36 31 29 28 32 32 35 37 36 34 41 45 37 37 37 34
Wind_Direction_500mb
217 206 196 231 264 206 118 25 11 19 7 16 29 19 37 68 115 151 165 186 178 169
227 218 209 225 258 228 175 151 127 15 8 11 21 22 55 90 131 148 158 173 175 177
228 224 214 200 249 267 184 159 158 178 359 30 56 56 101 114 144 157 164 176 177 171
222 224 213 208 212 254 267 226 179 189 125 143 74 53 135 152 135 155 146 144 166 154
225 220 229 227 234 245 248 236 221 199 174 151 85 97 119 152 146 141 150 148 165 174
222 219 232 237 239 242 231 225 218 196 172 166 126 139 142 166 157 155 154 158 168 173
223 216 230 244 252 234 237 218 211 206 169 160 168 144 157 163 177 170 142 147 145 147
229 219 228 241 247 239 230 216 204 203 166 156 162 155 150 153 158 158 143 142 139 145
230 224 226 237 229 234 219 208 192 177 163 161 155 151 155 153 156 156 158 161 154 152
223 223 228 226 222 230 207 182 166 163 167 171 167 160 154 155 159 162 167 174 172 173
221 217 221 207 213 193 189 173 161 163 168 179 180 170 163 169 164 167 179 180 179 180
225 216 212 202 199 188 178 171 173 170 169 173 179 172 175 172 171 167 168 173 175 174
230 216 210 203 199 195 187 186 184 184 180 178 181 180 181 187 189 183 185 184 188 191
223 216 211 204 201 202 200 200 204 199 190 190 190 191 190 196 204 210 208 203 197 202
Wind_Speed_850mb
10 9 9 5 7 4 4 1 4 7 13 12 14 20 19 14 16 21 30 36 38 59
13 10 8 6 10 7 7 5 2 3 10 11 13 14 15 16 23 27 29 33 34 45
16 12 10 7 6 9 6 7 5 2 3 4 9 9 13 16 18 25 19 34 38 50
18 17 13 9 7 8 9 7 8 5 1 4 3 4 8 15 18 24 34 30 47 52
21 20 18 14 12 11 12 13 11 8 6 8 6 8 16 25 27 31 29 32 38 34
24 23 20 16 14 14 14 15 14 11 10 10 9 15 15 29 29 29 20 25 36 33
26 25 23 19 17 13 14 16 18 15 12 15 14 14 17 24 33 26 20 28 35 37
28 28 26 22 16 13 14 18 21 20 20 19 15 19 23 30 31 34 39 45 46 41
30 29 26 22 17 15 17 17 22 23 28 20 20 26 26 33 37 43 44 49 37 38
30 30 26 22 18 20 19 21 26 31 24 23 27 31 29 31 34 40 46 41 36 31
31 31 25 20 19 21 23 29 32 27 23 28 26 34 35 35 36 33 36 34 35 28
34 33 29 24 26 26 26 31 28 26 23 29 35 35 35 41 38 32 32 35 32 25
34 35 32 28 34 32 30 30 28 28 26 29 36 37 41 42 43 38 34 35 35 28
37 37 34 35 40 38 36 31 29 28 32 32 35 37 36 34 41 45 37 37 37 34
Wind_Direction_850mb
217 206 196 231 264 206 118 25 11 19 7 16 29 19 37 68 115 151 165 186 178 169
227 218 209 225 258 228 175 151 127 15 8 11 21 22 55 90 131 148 158 173 175 177
228 224 214 200 249 267 184 159 158 178 359 30 56 56 101 114 144 157 164 176 177 171
222 224 213 208 212 254 267 226 179 189 125 143 74 53 135 152 135 155 146 144 166 154
225 220 229 227 234 245 248 236 221 199 174 151 85 97 119 152 146 141 150 148 165 174
222 219 232 237 239 242 231 225 218 196 172 166 126 139 142 166 157 155 154 158 168 173
223 216 230 244 252 234 237 218 211 206 169 160 168 144 157 163 177 170 142 147 145 147
229 219 228 241 247 239 230 216 204 203 166 156 162 155 150 153 158 158 143 142 139 145
230 224 226 237 229 234 219 208 192 177 163 161 155 151 155 153 156 156 158 161 154 152
223 223 228 226 222 230 207 182 166 163 167 171 167 160 154 155 159 162 167 174 172 173
221 217 221 207 213 193 189 173 161 163 168 179 180 170 163 169 164 167 179 180 179 180
225 216 212 202 199 188 178 171 173 170 169 173 179 172 175 172 171 167 168 173 175 174
230 216 210 203 199 195 187 186 184 184 180 178 181 180 181 187 189 183 185 184 188 191
223 216 211 204 201 202 200 200 204 199 190 190 190 191 190 196 204 210 208 203 197 202